Location: Ab? ar R?sh Ba?r?
(24.1861°N, 32.8847°E)
Time: 09:50:04
(UTC+00:00)

CZ-2D R/B - Pass Details

Date: 24 October 2021
Orbit: 519 x 537 km, 97.4° (Epoch: 03 December)

Event Time Altitude Azimuth Distance (km) Brightness Sun altitude
Rises 15:34:32 0° 156° (SSE) 2,651 6.7 -5.3°
Reaches altitude 10° 15:36:41 10° 150° (SSE) 1,768 5.7 -5.8°
Maximum altitude 15:40:20 46° 77° (ENE) 718 3.5 -6.6°
Drops below altitude 10° 15:44:03 10° 3° (N) 1,785 5.8 -7.4°
Sets 15:46:13 0° 357° (N) 2,681 6.8 -7.9°
